When you browse on this site, cookies collect data to enhance your experience and personalize the content and advertising you see.
Visit our Privacy Policy to learn more. By continuing to use the site, you agree to this use of cookies and data.
  • In Portugal
  • List of Countries
  • For 7 days
  • Water Temperature
  • Weather Map
  • Weather Widgets
  • user-avatar
    Login

    Hourly Weather Wien

    Today, 1 June, Monday

    Time Temperature Precipitation Wind Pressure Humidity
    00:00 +10°C° 0 mm 5 mps 745 mmHg 91%
    01:00 +10°C° 0 mm 5 mps 745 mmHg 91%
    02:00 +10°C° 0 mm 4 mps 745 mmHg 92%
    03:00 +10°C° 0 mm 4 mps 744 mmHg 92%
    04:00 +10°C° 0 mm 4 mps 744 mmHg 93%
    05:00 +11°C° 0 mm 4 mps 744 mmHg 90%
    06:00 +12°C° 0 mm 4 mps 745 mmHg 87%
    07:00 +13°C° 0 mm 4 mps 745 mmHg 85%
    08:00 +15°C° 0.1 mm 4 mps 745 mmHg 79%
    09:00 +17°C° 0.1 mm 4 mps 745 mmHg 73%
    10:00 +19°C° 0.1 mm 4 mps 745 mmHg 67%
    11:00 +19°C° 0.3 mm 4 mps 745 mmHg 64%
    12:00 +20°C° 0.3 mm 5 mps 745 mmHg 61%
    13:00 +21°C° 0.3 mm 5 mps 745 mmHg 59%
    14:00 +21°C° 0.1 mm 5 mps 744 mmHg 58%
    15:00 +21°C° 0.1 mm 5 mps 744 mmHg 57%
    16:00 +21°C° 0.1 mm 5 mps 744 mmHg 56%
    17:00 +20°C° 0 mm 4 mps 744 mmHg 61%
    18:00 +19°C° 0 mm 4 mps 744 mmHg 66%
    19:00 +17°C° 0 mm 3 mps 744 mmHg 71%
    20:00 +16°C° 0 mm 3 mps 744 mmHg 73%
    21:00 +14°C° 0 mm 3 mps 745 mmHg 74%
    22:00 +12°C° 0 mm 3 mps 745 mmHg 76%
    23:00 +12°C° 0 mm 3 mps 745 mmHg 76%

    Tomorrow, 2 June, Tuesday

    Time Temperature Precipitation Wind Pressure Humidity
    00:00 +11°C° 0 mm 3 mps 745 mmHg 76%
    01:00 +11°C° 0 mm 3 mps 745 mmHg 76%
    02:00 +10°C° 0 mm 3 mps 745 mmHg 77%
    03:00 +9°C° 0 mm 2 mps 745 mmHg 79%
    04:00 +9°C° 0 mm 2 mps 745 mmHg 81%
    05:00 +10°C° 0 mm 3 mps 744 mmHg 76%
    06:00 +11°C° 0 mm 3 mps 744 mmHg 72%
    07:00 +13°C° 0 mm 4 mps 744 mmHg 67%
    08:00 +14°C° 0 mm 4 mps 744 mmHg 63%
    09:00 +17°C° 0 mm 4 mps 744 mmHg 59%
    10:00 +17°C° 0 mm 5 mps 744 mmHg 55%
    11:00 +18°C° 0.3 mm 4 mps 743 mmHg 58%
    12:00 +18°C° 0.3 mm 4 mps 743 mmHg 60%
    13:00 +18°C° 0.3 mm 4 mps 742 mmHg 62%
    14:00 +18°C° 0.5 mm 4 mps 742 mmHg 63%
    15:00 +19°C° 0.5 mm 4 mps 741 mmHg 64%
    16:00 +19°C° 0.5 mm 4 mps 741 mmHg 65%
    17:00 +18°C° 0.2 mm 4 mps 741 mmHg 67%
    18:00 +17°C° 0.2 mm 3 mps 741 mmHg 70%
    19:00 +16°C° 0.2 mm 3 mps 741 mmHg 73%
    20:00 +15°C° 0 mm 2 mps 741 mmHg 75%
    21:00 +14°C° 0 mm 2 mps 741 mmHg 78%
    22:00 +13°C° 0 mm 2 mps 741 mmHg 81%
    23:00 +12°C° 0 mm 2 mps 741 mmHg 82%

    Day after tomorrow, 3 June, Wednesday

    Time Temperature Precipitation Wind Pressure Humidity
    00:00 +12°C° 0 mm 2 mps 740 mmHg 84%
    01:00 +10°C° 0 mm 2 mps 740 mmHg 85%
    02:00 +10°C° 0 mm 2 mps 740 mmHg 85%
    03:00 +12°C° 0 mm 2 mps 740 mmHg 84%
    04:00 +12°C° 0 mm 2 mps 740 mmHg 83%
    05:00 +12°C° 0 mm 3 mps 739 mmHg 81%
    06:00 +13°C° 0 mm 3 mps 739 mmHg 78%
    07:00 +14°C° 0 mm 4 mps 739 mmHg 75%
    08:00 +15°C° 0.1 mm 4 mps 739 mmHg 72%
    09:00 +17°C° 0.1 mm 4 mps 738 mmHg 68%
    10:00 +18°C° 0.1 mm 4 mps 738 mmHg 65%
    11:00 +19°C° 0.5 mm 3 mps 738 mmHg 64%
    12:00 +20°C° 0.5 mm 3 mps 737 mmHg 63%
    13:00 +21°C° 0.5 mm 3 mps 737 mmHg 62%
    14:00 +21°C° 0.3 mm 3 mps 737 mmHg 61%
    15:00 +21°C° 0.3 mm 3 mps 736 mmHg 61%
    16:00 +21°C° 0.3 mm 2 mps 736 mmHg 60%
    17:00 +20°C° 0 mm 2 mps 736 mmHg 64%
    18:00 +20°C° 0 mm 1 mps 736 mmHg 69%
    19:00 +19°C° 0 mm 1 mps 736 mmHg 73%
    20:00 +16°C° 0 mm 0 mps 736 mmHg 76%
    21:00 +15°C° 0 mm 0 mps 736 mmHg 78%
    22:00 +14°C° 0 mm 0 mps 736 mmHg 81%
    23:00 +13°C° 0 mm 0 mps 736 mmHg 82%

    4 June, Thursday

    Time Temperature Precipitation Wind Pressure Humidity
    00:00 +13°C° 0 mm 0 mps 735 mmHg 83%
    01:00 +13°C° 0 mm 1 mps 735 mmHg 84%
    02:00 +13°C° 0 mm 1 mps 735 mmHg 85%
    03:00 +12°C° 0 mm 1 mps 734 mmHg 87%
    04:00 +12°C° 0 mm 1 mps 734 mmHg 88%
    05:00 +13°C° 0 mm 1 mps 734 mmHg 85%
    06:00 +15°C° 0 mm 1 mps 734 mmHg 82%
    07:00 +16°C° 0 mm 2 mps 734 mmHg 79%
    08:00 +17°C° 0 mm 2 mps 733 mmHg 75%
    09:00 +19°C° 0 mm 2 mps 733 mmHg 70%
    10:00 +20°C° 0 mm 2 mps 733 mmHg 66%
    11:00 +21°C° 0 mm 2 mps 733 mmHg 63%
    12:00 +23°C° 0 mm 2 mps 732 mmHg 59%
    13:00 +25°C° 0 mm 3 mps 732 mmHg 56%
    14:00 +25°C° 0 mm 3 mps 731 mmHg 56%
    15:00 +25°C° 0 mm 3 mps 731 mmHg 57%
    16:00 +26°C° 0 mm 4 mps 730 mmHg 57%
    17:00 +25°C° 0.1 mm 4 mps 730 mmHg 61%
    18:00 +22°C° 0.1 mm 4 mps 730 mmHg 65%
    19:00 +21°C° 0.1 mm 4 mps 729 mmHg 70%
    20:00 +20°C° 0.5 mm 5 mps 730 mmHg 74%
    21:00 +19°C° 0.5 mm 6 mps 730 mmHg 78%
    22:00 +16°C° 0.5 mm 8 mps 730 mmHg 83%
    23:00 +16°C° 0.2 mm 6 mps 730 mmHg 83%

    5 June, Friday

    Time Temperature Precipitation Wind Pressure Humidity
    00:00 +17°C° 0.2 mm 4 mps 730 mmHg 83%
    01:00 +16°C° 0.2 mm 2 mps 731 mmHg 83%
    02:00 +16°C° 0 mm 2 mps 731 mmHg 83%
    03:00 +16°C° 0 mm 1 mps 731 mmHg 83%
    04:00 +15°C° 0 mm 1 mps 731 mmHg 83%
    05:00 +16°C° 0.3 mm 1 mps 731 mmHg 85%
    06:00 +16°C° 0.3 mm 1 mps 731 mmHg 86%
    07:00 +16°C° 0.3 mm 2 mps 731 mmHg 87%
    08:00 +16°C° 0.6 mm 2 mps 732 mmHg 88%
    09:00 +16°C° 0.6 mm 3 mps 732 mmHg 89%
    10:00 +16°C° 0.6 mm 3 mps 732 mmHg 90%
    11:00 +16°C° 1.8 mm 3 mps 732 mmHg 89%
    12:00 +16°C° 1.8 mm 3 mps 732 mmHg 89%
    13:00 +16°C° 1.8 mm 3 mps 732 mmHg 88%
    14:00 +16°C° 1.2 mm 3 mps 733 mmHg 86%
    15:00 +16°C° 1.2 mm 3 mps 733 mmHg 84%
    16:00 +17°C° 1.2 mm 3 mps 733 mmHg 82%
    17:00 +17°C° 0 mm 3 mps 734 mmHg 81%
    18:00 +16°C° 0 mm 2 mps 734 mmHg 80%
    19:00 +16°C° 0 mm 2 mps 734 mmHg 78%
    20:00 +15°C° 0 mm 2 mps 734 mmHg 80%
    21:00 +15°C° 0 mm 2 mps 735 mmHg 82%
    22:00 +14°C° 0 mm 2 mps 735 mmHg 84%
    23:00 +13°C° 0 mm 1 mps 735 mmHg 84%

    6 June, Saturday

    Time Temperature Precipitation Wind Pressure Humidity
    00:00 +13°C° 0 mm 1 mps 735 mmHg 85%
    01:00 +12°C° 0 mm 1 mps 735 mmHg 85%
    02:00 +12°C° 0 mm 1 mps 735 mmHg 86%
    03:00 +12°C° 0 mm 1 mps 735 mmHg 86%
    04:00 +12°C° 0 mm 1 mps 735 mmHg 86%
    05:00 +13°C° 0 mm 1 mps 735 mmHg 82%
    06:00 +15°C° 0 mm 1 mps 735 mmHg 77%
    07:00 +16°C° 0 mm 1 mps 735 mmHg 73%
    08:00 +18°C° 0 mm 2 mps 735 mmHg 70%
    09:00 +19°C° 0 mm 2 mps 735 mmHg 67%
    10:00 +20°C° 0 mm 2 mps 735 mmHg 64%
    11:00 +20°C° 0 mm 2 mps 735 mmHg 63%
    12:00 +21°C° 0 mm 2 mps 735 mmHg 62%
    13:00 +21°C° 0 mm 2 mps 735 mmHg 61%
    14:00 +23°C° 0.1 mm 2 mps 735 mmHg 60%
    15:00 +23°C° 0.1 mm 1 mps 735 mmHg 58%
    16:00 +24°C° 0.1 mm 1 mps 735 mmHg 57%
    17:00 +23°C° 0.2 mm 2 mps 735 mmHg 61%
    18:00 +21°C° 0.2 mm 2 mps 735 mmHg 66%
    19:00 +20°C° 0.2 mm 2 mps 735 mmHg 70%
    20:00 +19°C° 0 mm 3 mps 736 mmHg 71%
    21:00 +18°C° 0 mm 3 mps 737 mmHg 72%
    22:00 +18°C° 0 mm 4 mps 737 mmHg 73%
    23:00 +17°C° 0 mm 4 mps 737 mmHg 75%
    Show more